This is the latest recevied weather packets stored in our database for station/object KJ4RDP-13. If no packets are shown the sender has not sent any weather packets the latest 10 day(s).
| Time | Temp. | Humidity | Pressure | Rain* | Wind** | Luminosity | Snow |
|---|---|---|---|---|---|---|---|
| 1777117656 | 7.78° C | 99% | 1011.7 hPa | 0 mm | - | 63 W/m² | - |
| 1777117354 | 7.22° C | 99% | 1011.7 hPa | 0 mm | - | 58 W/m² | - |
| 1777117049 | 6.67° C | 99% | 1011.7 hPa | 0 mm | - | 52 W/m² | - |
| 1777116745 | 6.67° C | 99% | 1011.3 hPa | 0 mm | - | 40 W/m² | - |
| 1777116440 | 6.11° C | 99% | 1011.7 hPa | 0 mm | - | 35 W/m² | - |
| 1777116137 | 6.11° C | 99% | 1011.3 hPa | 0 mm | - | 30 W/m² | - |
| 1777115836 | 6.11° C | 99% | 1011.7 hPa | 0 mm | - | 24 W/m² | - |
| 1777115532 | 6.11° C | 99% | 1011.7 hPa | 0 mm | - | 20 W/m² | - |
| 1777115229 | 5.56° C | 99% | 1011.7 hPa | 0 mm | - | 14 W/m² | - |
| 1777114926 | 5.56° C | 99% | 1011.3 hPa | 0 mm | - | 9 W/m² | - |
| 1777114622 | 5.56° C | 99% | 1011.7 hPa | 0 mm | - | 6 W/m² | - |
| 1777114322 | 6.11° C | 99% | 1011.7 hPa | 0 mm | - | 3 W/m² | - |
| 1777114018 | 6.11° C | 99% | 1011.3 hPa | 0 mm | - | 1 W/m² | - |
| 1777113715 | 6.11° C | 99% | 1011.3 hPa | 0 mm | - | 0 W/m² | - |
| 1777113413 | 6.11° C | 99% | 1011.3 hPa | 0 mm | - | 0 W/m² | - |
| 1777113113 | 6.11° C | 99% | 1011.3 hPa | 0 mm | - | 0 W/m² | - |
| 1777112809 | 6.11° C | 99% | 1011 hPa | 0 mm | - | 0 W/m² | - |
| 1777112506 | 6.11° C | 99% | 1011 hPa | 0 mm | - | 0 W/m² | - |
| 1777112203 | 6.11° C | 99% | 1011 hPa | 0 mm | - | 0 W/m² | - |
| 1777111898 | 6.11° C | 99% | 1011 hPa | 0 mm | - | 0 W/m² | - |
| 1777111596 | 6.11° C | 99% | 1011 hPa | 0 mm | - | 0 W/m² | - |
| 1777111292 | 5.56° C | 99% | 1011 hPa | 0 mm | - | 0 W/m² | - |
| 1777110988 | 5.56° C | 99% | 1011 hPa | 0 mm | - | 0 W/m² | - |
| 1777110685 | 5.56° C | 99% | 1011 hPa | 0 mm | - | 0 W/m² | - |
| 1777110380 | 6.67° C | 99% | 1011 hPa | 0 mm | - | 0 W/m² | - |
* Rain latest hour (hover to see other rain measurements)
** Current wind speed in m/s (hover to see current wind gust speed)